NILESAT 301

Last updated on Tue Mar 03 2026 00:02:54 GMT+0000 (Coordinated Universal Time)

1 52817U 22061A 26061.39905814 .00000000 00000+0 00000+0 0 9996 2 52817 0.0271 37.0532 0005836 310.8003 309.0186 1.00270626 13669
UTC large
Height (km)
Speed (km/s)
/
Latitude / Longitude
Inclination (degrees)
Orbital Period (minutes)
Azimuth
Elevation
Range (km)
Doppler Factor

Next 0 passes for location: London (51.5072 / 0.1276)

Sorry there are no passes over London.